| time (UTC) | temp F | wind direction | speed knots | gust knots | rain 1hr in | rain 24hr in | rain mn in | humidity % | barometer mb |
| 20260507184526 | 62 | 329 | 5.2 | 12.2 | 0.00 | 0.09 | 0.09 | 44 | 1014.2 |
| 20260507183026 | 62 | 23 | 3.5 | 7.0 | 0.00 | 0.09 | 0.09 | 48 | 1014.4 |
| 20260507181505 | 61 | 333 | 4.3 | 9.6 | 0.00 | 0.09 | 0.09 | 52 | 1014.4 |
| 20260507180005 | 60 | 36 | 5.2 | 8.7 | 0.00 | 0.09 | 0.09 | 50 | 1014.3 |
| 20260507174514 | 60 | 341 | 1.7 | 5.2 | 0.00 | 0.09 | 0.09 | 50 | 1014.4 |
| 20260507173022 | 62 | 44 | 3.5 | 7.0 | 0.00 | 0.09 | 0.09 | 50 | 1014.4 |
| 20260507171512 | 61 | 70 | 1.7 | 4.3 | 0.00 | 0.09 | 0.09 | 55 | 1014.2 |
| 20260507170007 | 59 | 49 | 0.9 | 2.6 | 0.00 | 0.09 | 0.09 | 55 | 1014.2 |
| 20260507164512 | 58 | 11 | 0.9 | 3.5 | 0.00 | 0.09 | 0.09 | 55 | 1014.4 |
| 20260507163012 | 59 | 340 | 1.7 | 7.8 | 0.00 | 0.09 | 0.09 | 53 | 1014.4 |
| 20260507161519 | 58 | 327 | 1.7 | 5.2 | 0.00 | 0.09 | 0.09 | 55 | 1014.5 |
| 20260507160017 | 58 | 332 | 2.6 | 4.3 | 0.00 | 0.09 | 0.09 | 58 | 1014.4 |
| 20260507154514 | 57 | 323 | 1.7 | 3.5 | 0.00 | 0.09 | 0.09 | 58 | 1014.6 |
| 20260507153017 | 57 | 36 | 0.0 | 2.6 | 0.00 | 0.09 | 0.09 | 62 | 1014.7 |
| 20260507151516 | 55 | 25 | 0.0 | 2.6 | 0.00 | 0.09 | 0.09 | 65 | 1014.7 |
| 20260507150023 | 53 | 250 | 1.7 | 3.5 | 0.00 | 0.09 | 0.09 | 65 | 1014.7 |
| 20260507144523 | 52 | 187 | 0.9 | 3.5 | 0.00 | 0.09 | 0.09 | 66 | 1014.7 |
| 20260507143008 | 50 | 117 | 1.7 | 5.2 | 0.00 | 0.09 | 0.09 | 73 | 1014.4 |
| 20260507141518 | 47 | 115 | 2.6 | 3.5 | 0.00 | 0.09 | 0.09 | 77 | 1014.5 |
| 20260507140018 | 47 | 146 | 2.6 | 5.2 | 0.00 | 0.09 | 0.09 | 78 | 1014.4 |
| 20260507134521 | 47 | 151 | 3.5 | 6.1 | 0.00 | 0.09 | 0.09 | 78 | 1014.4 |
| 20260507133024 | 47 | 165 | 1.7 | 5.2 | 0.00 | 0.09 | 0.09 | 80 | 1014.3 |
| 20260507131510 | 45 | 149 | 2.6 | 4.3 | 0.00 | 0.09 | 0.09 | 82 | 1014.2 |
| 20260507130022 | 47 | 98 | 0.9 | 1.7 | 0.00 | 0.09 | 0.09 | 73 | 1014.2 |
| 20260507124529 | 47 | 349 | 0.9 | 2.6 | 0.00 | 0.09 | 0.09 | 72 | 1014.2 |
| 20260507123023 | 46 | 335 | 0.0 | 3.5 | 0.00 | 0.09 | 0.09 | 74 | 1014.0 |
| 20260507121520 | 46 | 17 | 0.0 | 3.5 | 0.00 | 0.09 | 0.09 | 76 | 1013.9 |
| 20260507120017 | 46 | 53 | 0.9 | 2.6 | 0.04 | 0.09 | 0.09 | 80 | 1014.0 |
| 20260507114524 | 47 | 341 | 1.7 | 3.5 | 0.04 | 0.09 | 0.09 | 77 | 1014.0 |
| 20260507113020 | 47 | 5 | 0.9 | 4.3 | 0.04 | 0.09 | 0.09 | 79 | 1014.0 |
| 20260507111525 | 47 | 18 | 1.7 | 6.1 | 0.04 | 0.09 | 0.09 | 80 | 1013.9 |
| 20260507110026 | 47 | 102 | 0.9 | 5.2 | 0.00 | 0.05 | 0.05 | 73 | 1013.7 |
| 20260507104511 | 48 | 96 | 2.6 | 5.2 | 0.00 | 0.05 | 0.05 | 72 | 1013.5 |
| 20260507103020 | 48 | 112 | 2.6 | 3.5 | 0.00 | 0.05 | 0.05 | 72 | 1013.5 |
| 20260507101525 | 48 | 109 | 2.6 | 5.2 | 0.00 | 0.05 | 0.05 | 71 | 1013.5 |
| 20260507100032 | 49 | 107 | 3.5 | 6.1 | 0.00 | 0.05 | 0.05 | 70 | 1013.4 |
| 20260507094525 | 49 | 142 | 4.3 | 8.7 | 0.00 | 0.05 | 0.05 | 70 | 1013.3 |
| 20260507093019 | 49 | 151 | 7.0 | 9.6 | 0.00 | 0.05 | 0.05 | 70 | 1013.3 |
| 20260507091507 | 49 | 148 | 8.7 | 11.3 | 0.00 | 0.05 | 0.05 | 70 | 1013.3 |
| 20260507090015 | 50 | 147 | 7.8 | 9.6 | 0.00 | 0.05 | 0.05 | 70 | 1013.2 |
| 20260507084526 | 50 | 126 | 3.5 | 4.3 | 0.02 | 0.05 | 0.05 | 70 | 1013.1 |
| 20260507083032 | 52 | 106 | 0.9 | 1.7 | 0.04 | 0.05 | 0.05 | 63 | 1013.1 |
| 20260507081528 | 52 | 336 | 1.7 | 12.2 | 0.05 | 0.05 | 0.05 | 66 | 1013.1 |
| 20260507080006 | 50 | 234 | 3.5 | 11.3 | 0.05 | 0.05 | 0.05 | 74 | 1013.2 |
| 20260507074527 | 51 | 5 | 3.5 | 14.8 | 0.03 | 0.03 | 0.03 | 68 | 1013.5 |
| 20260507073013 | 53 | 42 | 0.0 | 1.7 | 0.01 | 0.01 | 0.01 | 64 | 1013.5 |
| 20260507071517 | 53 | 342 | 0.0 | 2.6 | 0.00 | 0.00 | 0.00 | 58 | 1013.5 |
| 20260507070029 | 54 | 344 | 0.0 | 0.0 | 0.00 | 0.00 | 0.00 | 51 | 1013.3 |
| 20260507064506 | 54 | 77 | 0.9 | 1.7 | 0.00 | 0.00 | 0.00 | 53 | 1013.0 |
| 20260507063011 | 55 | 333 | 0.9 | 7.8 | 0.00 | 0.00 | 0.00 | 53 | 1013.0 |
| 20260507061513 | 55 | 118 | 1.7 | 7.0 | 0.00 | 0.00 | 0.00 | 51 | 1012.6 |
| 20260507060020 | 54 | 249 | 2.6 | 11.3 | 0.00 | 0.00 | 0.00 | 54 | 1013.1 |
| 20260507054530 | 54 | 150 | 0.0 | 6.1 | 0.00 | 0.00 | 0.00 | 54 | 1013.4 |
| 20260507053008 | 55 | 110 | 1.7 | 5.2 | 0.00 | 0.00 | 0.00 | 51 | 1013.2 |
| 20260507051526 | 55 | 269 | 2.6 | 10.4 | 0.00 | 0.00 | 0.00 | 49 | 1013.2 |
| 20260507050032 | 56 | 278 | 0.9 | 3.5 | 0.00 | 0.00 | 0.00 | 47 | 1013.5 |
| 20260507044520 | 56 | 213 | 0.9 | 2.6 | 0.00 | 0.00 | 0.00 | 47 | 1013.2 |
| 20260507043028 | 56 | 112 | 0.0 | 4.3 | 0.00 | 0.00 | 0.00 | 45 | 1013.2 |
| 20260507041508 | 57 | 72 | 0.9 | 5.2 | 0.00 | 0.00 | 0.00 | 42 | 1013.3 |
| 20260507040018 | 58 | 304 | 2.6 | 7.0 | 0.00 | 0.00 | 0.00 | 41 | 1013.2 |
| 20260507034525 | 57 | 309 | 0.9 | 2.6 | 0.00 | 0.00 | 0.00 | 41 | 1013.0 |
| 20260507033026 | 58 | 340 | 0.0 | 4.3 | 0.00 | 0.00 | 0.00 | 40 | 1012.7 |
| 20260507031527 | 58 | 40 | 0.0 | 0.0 | 0.00 | 0.00 | 0.00 | 39 | 1012.3 |
| 20260507030018 | 57 | 352 | 0.0 | 0.0 | 0.00 | 0.00 | 0.00 | 40 | 1012.3 |
| 20260507024525 | 58 | 352 | 0.0 | 0.0 | 0.00 | 0.00 | 0.00 | 41 | 1012.1 |
| 20260507023022 | 58 | 25 | 0.9 | 2.6 | 0.00 | 0.00 | 0.00 | 40 | 1012.0 |
| 20260507021524 | 58 | 64 | 0.0 | 1.7 | 0.00 | 0.00 | 0.00 | 41 | 1012.0 |
| 20260507020031 | 59 | 40 | 0.0 | 1.7 | 0.00 | 0.00 | 0.00 | 41 | 1011.9 |
| 20260507014529 | 60 | 54 | 0.0 | 1.7 | 0.00 | 0.00 | 0.00 | 38 | 1011.9 |
| 20260507013040 | 61 | 33 | 0.9 | 2.6 | 0.00 | 0.00 | 0.00 | 37 | 1011.9 |
| 20260507011524 | 61 | 249 | 0.0 | 3.5 | 0.00 | 0.00 | 0.00 | 38 | 1011.9 |
| 20260507010034 | 62 | 40 | 0.0 | 1.7 | 0.00 | 0.00 | 0.00 | 36 | 1012.0 |
| 20260507004528 | 62 | 360 | 0.0 | 1.7 | 0.00 | 0.00 | 0.00 | 40 | 1012.1 |
| 20260507003019 | 63 | 352 | 0.9 | 3.5 | 0.00 | 0.00 | 0.00 | 34 | 1012.1 |
| 20260507001504 | 63 | 318 | 2.6 | 6.1 | 0.00 | 0.00 | 0.00 | 32 | 1012.2 |
| 20260507000009 | 65 | 304 | 2.6 | 7.0 | 0.00 | 0.00 | 0.00 | 31 | 1012.2 |
| 20260506234514 | 65 | 292 | 5.2 | 8.7 | 0.00 | 0.00 | 0.00 | 30 | 1012.3 |
| 20260506233017 | 65 | 311 | 1.7 | 7.8 | 0.00 | 0.00 | 0.00 | 31 | 1012.4 |
| 20260506231504 | 65 | 287 | 1.7 | 6.1 | 0.00 | 0.00 | 0.00 | 31 | 1012.7 |
| 20260506230009 | 65 | 352 | 0.9 | 5.2 | 0.00 | 0.00 | 0.00 | 33 | 1013.0 |
| 20260506224508 | 64 | 334 | 1.7 | 7.8 | 0.00 | 0.00 | 0.00 | 32 | 1013.2 |
| 20260506223013 | 63 | 5 | 0.9 | 4.3 | 0.00 | 0.00 | 0.00 | 33 | 1013.3 |
| 20260506221521 | 62 | 302 | 0.9 | 8.7 | 0.00 | 0.00 | 0.00 | 31 | 1013.6 |
| 20260506220007 | 61 | 81 | 4.3 | 7.8 | 0.00 | 0.00 | 0.00 | 34 | 1013.6 |
| 20260506214510 | 61 | 10 | 1.7 | 7.0 | 0.00 | 0.00 | 0.00 | 36 | 1014.1 |
| 20260506213016 | 60 | 92 | 1.7 | 4.3 | 0.00 | 0.00 | 0.00 | 33 | 1014.5 |
| 20260506211518 | 59 | 57 | 2.6 | 8.7 | 0.00 | 0.00 | 0.00 | 35 | 1014.9 |
| 20260506210026 | 59 | 192 | 1.7 | 8.7 | 0.00 | 0.00 | 0.00 | 37 | 1015.1 |
| 20260506204508 | 58 | 215 | 0.9 | 5.2 | 0.00 | 0.00 | 0.00 | 36 | 1015.3 |
| 20260506203008 | 56 | 101 | 0.0 | 6.1 | 0.00 | 0.00 | 0.00 | 33 | 1015.6 |
| 20260506201517 | 55 | 42 | 0.9 | 8.7 | 0.00 | 0.00 | 0.00 | 32 | 1015.7 |
| 20260506200021 | 54 | 121 | 1.7 | 6.1 | 0.00 | 0.00 | 0.00 | 33 | 1016.0 |
| 20260506194526 | 53 | 76 | 1.7 | 7.0 | 0.00 | 0.00 | 0.00 | 33 | 1016.2 |
| 20260506193010 | 53 | 304 | 3.5 | 4.3 | 0.00 | 0.00 | 0.00 | 31 | 1016.5 |
| 20260506191528 | 52 | 10 | 0.0 | 1.7 | 0.00 | 0.00 | 0.00 | 35 | 1016.6 |